Location: Newark
(25.6108°S, 54.5803°W)
Time: 16:11:15
(UTC+00:00)

Courier 1B Rocket - Pass Details

Date: 27 October 2020
Orbit: 920 x 1202 km, 28.2° (Epoch: 22 November)

Event Time Altitude Azimuth Distance (km) Brightness Sun altitude
Rises 06:47:12 0° 338° (NNW) 4,028 - -26.9°
Reaches altitude 10° 06:51:42 10° 1° (N) 3,024 - -26.1°
Exits shadow 06:52:45 12° 9° (N) 2,868 7.2 -25.9°
Maximum altitude 06:55:20 14° 31° (NNE) 2,678 7.3 -25.4°
Drops below altitude 10° 06:58:53 10° 61° (ENE) 2,935 7.9 -24.7°
Sets 07:03:05 0° 84° (E) 3,830 9.0 -23.8°
